Wind_Speed
6 6 7 7 7 6 7 6 4 2 2 4 5 7 8 8 9 9 10 12 13 14 15 14 15 15 15 14 13 12 11 11 11 12 13 15 17 17 18 20 20 20 19 20 21 21 21 22 22 23 23 23 23 24 25 26 26 26 25 25 26 27 28 27 25 24 26 26 24 25 22 19 17 15 15 16 14 15 17 19 19 19 18 18 17
2 2 2 3 3 3 2 2 3 2 1 2 3 4 6 7 7 8 10 11 12 13 14 13 13 14 14 14 13 11 11 11 11 12 13 15 16 17 18 19 19 20 21 21 21 21 22 22 21 22 23 24 24 24 25 26 26 25 24 25 26 27 28 26 23 24 26 26 25 24 22 20 18 17 17 17 14 15 18 19 19 18 17 17 16
2 3 7 7 5 5 4 3 3 2 1 1 4 5 6 7 8 8 9 10 11 12 12 12 12 13 14 13 11 11 11 10 9 9 10 12 15 16 18 18 17 19 20 21 20 20 21 21 21 22 23 23 24 24 25 25 25 25 25 24 24 25 26 26 24 24 26 27 26 25 23 21 19 17 17 15 14 16 18 17 17 18 17 16 15
1 4 8 7 5 6 5 3 2 1 1 2 4 5 7 9 10 9 9 10 11 11 12 12 11 12 13 12 10 10 10 9 8 7 8 10 12 14 17 17 15 15 17 18 17 17 18 19 20 21 23 24 24 25 26 25 24 25 24 22 23 24 24 26 25 23 25 28 28 26 25 23 20 18 17 15 15 16 16 16 16 17 17 16 15
1 4 6 6 5 5 4 2 0 2 3 4 4 5 8 10 11 11 10 10 11 11 11 11 11 11 11 11 9 9 9 8 6 6 7 8 10 12 14 15 14 14 15 14 14 15 17 18 18 19 21 23 24 25 27 25 24 25 24 21 22 22 22 25 25 22 24 28 29 28 27 25 21 19 18 16 17 18 16 15 15 16 17 16 15
5 8 7 5 5 4 3 1 1 3 4 5 6 7 8 9 10 11 11 10 10 10 10 10 10 10 10 10 9 8 8 7 5 6 6 7 9 10 11 11 11 12 13 12 13 15 15 16 16 16 18 20 21 23 25 25 25 26 24 22 21 21 21 24 25 25 25 27 29 29 29 26 22 20 19 18 17 17 17 17 15 15 16 16 16
8 9 7 5 5 4 4 4 3 5 6 7 7 8 9 10 10 11 12 11 9 9 9 9 10 10 9 9 8 8 8 7 6 6 6 6 7 8 8 7 7 8 8 10 12 14 14 15 15 15 16 18 18 19 21 23 24 25 24 23 22 21 21 23 25 26 26 26 30 31 30 27 23 20 20 19 17 16 16 18 17 17 17 17 18
6 8 7 5 4 5 6 7 8 9 8 8 8 9 10 11 12 12 13 11 9 10 11 10 10 10 8 8 9 8 8 8 6 6 6 5 5 7 7 6 7 7 6 8 11 13 14 14 15 15 16 16 17 17 18 20 22 24 24 24 22 22 22 23 25 26 26 28 32 32 32 30 25 22 22 24 23 20 18 17 17 19 20 19 18
3 6 7 6 5 6 6 7 10 10 9 8 9 10 11 12 12 12 13 12 9 10 11 11 11 10 8 8 8 8 8 7 5 5 4 4 4 5 6 6 7 7 7 7 10 13 14 14 14 15 14 15 16 17 17 19 22 23 24 23 23 23 22 23 24 25 25 29 34 34 34 32 28 26 28 27 24 20 17 16 17 19 22 21 19
4 7 8 8 7 7 6 8 11 11 10 11 12 13 14 14 13 13 13 13 11 11 11 11 11 10 8 8 8 8 7 5 4 4 3 4 4 3 2 4 6 6 6 7 9 12 13 13 15 15 13 13 14 15 16 18 20 21 22 22 23 24 23 23 25 25 27 31 36 36 35 34 31 29 29 26 22 19 18 18 19 20 23 23 21
6 8 9 8 7 7 9 11 12 12 13 15 16 17 17 16 16 15 13 13 12 12 11 11 11 10 9 8 8 7 6 5 5 5 3 3 3 2 2 2 1 2 2 4 7 9 10 12 14 14 12 11 12 13 14 15 17 18 19 20 21 22 23 25 27 27 29 33 37 36 35 34 32 30 28 24 23 21 19 19 21 22 26 26 24
6 7 8 8 6 7 10 13 13 14 16 17 18 18 18 18 18 17 17 16 16 15 14 14 13 12 10 9 8 7 7 6 7 6 4 3 4 3 3 2 1 2 1 2 4 5 7 9 11 11 11 10 10 11 13 13 15 16 17 17 17 18 22 25 27 27 28 33 38 37 34 33 32 31 28 25 24 21 20 22 23 22 24 26 24
6 7 8 9 8 9 11 13 14 15 17 18 17 18 19 20 20 21 20 21 22 23 23 21 18 15 13 12 11 9 8 8 8 8 7 6 7 6 5 4 2 0 1 2 3 2 3 6 7 8 8 8 8 10 12 14 15 16 15 16 16 17 19 22 25 25 25 29 35 35 32 31 31 31 28 25 23 22 21 24 24 22 22 23 22
6 8 9 9 10 10 12 13 14 15 16 16 16 17 19 20 21 22 22 23 25 26 25 24 22 18 16 13 11 9 11 12 12 11 10 10 9 9 7 5 3 2 1 1 2 3 4 5 5 6 6 6 7 9 11 14 16 16 15 15 17 18 19 21 23 23 23 25 29 31 31 30 30 29 27 23 23 23 22 23 25 23 23 23 22
7 9 9 9 10 11 12 13 13 13 14 14 15 17 18 19 21 21 22 23 24 24 25 26 25 23 20 17 17 17 18 19 19 19 17 15 14 13 13 11 8 4 2 1 1 3 4 4 5 5 4 5 7 9 11 14 16 15 13 13 16 18 20 20 19 17 19 22 25 28 29 28 29 29 25 22 24 24 21 21 23 24 26 27 27
8 9 8 9 10 10 12 13 13 12 12 13 15 17 18 19 20 20 20 21 21 22 23 25 26 26 24 23 25 26 25 25 26 26 24 21 20 20 21 20 17 12 7 2 1 3 3 2 2 3 3 3 5 7 9 11 12 13 13 14 16 18 19 19 14 10 12 16 19 23 25 25 26 27 24 22 25 26 25 24 26 29 30 31 30
9 9 8 9 10 11 12 12 12 12 12 13 15 17 18 18 19 19 19 19 20 21 22 24 25 26 25 25 26 27 28 27 27 26 26 24 23 23 24 25 26 24 17 8 3 5 6 5 4 3 5 6 6 6 7 9 9 10 12 13 15 16 16 16 15 13 13 14 15 19 23 22 21 22 22 22 22 23 23 25 27 30 32 32 30
9 9 9 10 11 12 12 12 12 12 13 14 16 17 18 18 19 19 18 19 20 21 22 23 24 25 25 24 25 26 27 26 23 22 23 21 21 20 20 22 24 26 24 18 14 13 10 7 4 3 5 7 7 6 6 8 10 11 12 14 15 14 13 13 13 15 16 15 16 19 21 20 20 22 24 24 22 20 20 22 24 26 28 29 28
9 9 11 12 12 12 12 12 13 13 14 14 15 17 18 19 19 19 19 20 20 20 21 22 24 25 25 24 25 25 24 23 21 19 19 17 17 15 14 15 18 19 20 19 18 16 12 7 5 6 8 10 10 9 8 8 11 16 17 17 17 16 15 13 11 12 12 12 14 17 17 19 21 21 22 24 25 23 21 20 21 22 23 24 24
10 10 13 15 14 13 13 13 13 14 15 15 17 18 20 20 20 20 21 21 21 21 22 23 25 26 25 25 24 23 22 21 19 18 17 16 16 15 15 16 16 16 17 20 20 20 17 15 16 13 11 12 13 13 12 9 10 14 14 14 16 15 14 13 12 11 12 12 13 14 14 16 16 15 18 22 22 19 18 18 18 18 19 22 24
12 14 16 18 18 17 16 15 15 16 16 16 18 20 20 20 20 20 21 22 22 22 23 24 26 27 27 26 26 25 23 22 21 19 19 19 18 18 18 20 20 19 20 22 25 25 23 21 22 19 15 14 13 11 11 10 9 9 9 9 12 12 10 9 9 8 9 10 10 11 11 12 11 10 14 17 15 13 13 13 12 12 13 16 18
17 18 20 21 20 20 20 18 17 17 17 18 20 21 20 19 19 19 20 20 21 22 24 24 25 27 27 27 28 27 25 24 23 22 21 21 21 21 22 23 22 20 21 23 25 25 23 22 21 17 15 14 12 11 12 11 10 10 10 10 10 8 6 6 5 4 5 6 6 6 6 6 6 6 7 8 8 9 10 9 9 10 11 12 13
22 23 23 23 22 21 20 19 19 20 20 21 22 22 21 19 19 19 20 20 22 23 25 25 25 26 27 27 28 27 26 25 24 23 22 22 22 22 23 23 21 19 21 24 25 24 22 20 18 15 13 12 11 11 11 11 12 11 10 9 7 5 4 4 3 3 2 2 2 2 3 3 3 4 3 3 3 3 5 7 7 7 8 10 11
25 25 25 24 24 23 22 21 21 21 22 22 22 23 23 21 20 21 21 21 22 24 25 25 25 25 26 27 26 25 24 24 23 23 22 21 22 22 22 22 20 20 21 24 24 22 21 19 17 15 14 13 12 11 11 10 9 7 5 5 5 5 5 6 6 6 6 5 4 3 3 3 2 3 4 5 5 5 5 5 5 4 4 5 6
24 24 24 24 24 24 24 24 23 23 22 22 22 23 22 21 21 20 20 20 21 23 24 24 24 25 26 26 26 25 24 24 23 23 22 22 22 22 22 22 22 21 22 22 22 20 18 16 14 14 13 12 11 10 11 12 10 8 6 5 3 2 3 3 4 5 4 4 4 4 4 4 3 3 5 6 6 7 7 7 7 6 6 6 7
24 23 22 22 21 21 22 23 23 23 22 22 22 22 22 22 22 22 22 23 24 26 26 27 28 29 29 29 29 28 28 27 27 26 26 25 25 25 25 25 25 24 24 23 21 19 18 16 15 15 14 12 11 11 11 10 8 7 6 5 4 4 4 3 2 2 3 4 6 6 6 6 5 4 4 3 2 2 3 3 3 5 5 5 6
26 25 23 22 21 20 21 22 23 24 25 25 26 27 27 27 28 28 28 28 29 30 30 31 31 32 32 31 30 30 30 29 29 28 28 27 27 26 26 26 25 24 23 22 21 20 20 19 19 18 17 16 15 15 14 12 10 9 8 7 6 6 5 4 4 4 4 3 3 3 2 1 1 2 3 5 6 6 7 7 6 6 8 9 9
28 27 26 24 23 23 23 24 25 27 29 30 30 31 31 30 31 32 31 29 30 30 31 31 31 30 30 29 28 29 29 29 28 28 27 26 26 25 25 25 24 23 23 21 20 20 20 20 20 20 19 19 19 19 18 17 15 15 14 12 11 9 7 6 4 5 6 7 6 4 2 3 4 6 6 5 4 3 1 0 2 3 2 2 4
28 29 28 27 26 26 25 26 26 28 29 31 31 31 30 29 30 30 29 28 28 28 28 28 27 26 27 27 26 27 27 28 27 25 23 23 24 24 24 23 22 22 21 19 18 19 21 22 23 23 22 23 23 22 21 20 19 19 17 16 15 14 12 9 7 8 10 11 11 10 8 8 9 9 9 8 7 6 5 4 4 4 4 4 4
25 27 28 28 28 27 27 27 26 26 27 28 30 31 30 28 27 27 26 25 25 24 25 25 24 23 24 25 26 26 27 26 24 22 21 22 22 22 22 20 19 18 17 15 16 19 21 22 23 23 23 23 23 23 22 21 20 19 18 17 17 16 15 13 11 10 9 9 10 11 10 8 8 8 7 6 5 6 4 2 4 5 4 4 5
23 25 25 25 26 26 26 27 26 26 26 26 27 29 30 30 28 27 26 25 24 23 23 24 23 22 23 24 25 25 24 23 22 22 22 22 21 21 21 19 18 17 14 13 17 21 22 23 24 24 23 23 23 22 20 19 18 17 16 16 16 15 14 13 12 10 7 6 7 7 7 7 7 6 6 6 6 7 6 3 3 7 7 6 8
23 24 23 22 22 23 24 24 25 25 25 24 24 25 26 28 29 29 28 27 26 25 24 23 22 22 22 22 22 22 21 21 21 22 23 23 22 21 21 21 20 19 17 17 22 25 25 25 26 25 24 24 23 22 21 19 18 16 15 14 14 14 13 12 11 9 7 5 4 4 4 4 4 3 3 4 5 5 7 6 0 6 9 9 10
22 23 22 21 20 19 19 20 22 23 23 23 23 23 23 25 27 28 28 28 28 27 25 24 22 21 21 20 19 19 19 19 19 19 21 22 21 19 20 21 21 20 19 21 25 27 26 26 25 24 23 23 22 21 21 20 18 17 15 13 12 11 11 10 9 8 7 6 4 3 2 3 3 3 2 1 1 1 3 4 2 4 8 10 11
20 21 21 19 18 17 17 17 18 19 20 20 21 21 21 21 22 24 25 26 27 27 26 25 23 22 21 20 19 18 18 17 17 17 18 19 18 17 17 19 20 20 21 23 24 24 24 23 23 22 21 20 20 19 19 18 18 17 16 14 11 9 7 7 7 7 7 6 4 3 4 5 4 3 3 3 3 2 2 1 1 2 5 8 10
18 20 20 19 18 17 17 16 16 16 16 17 18 19 19 18 18 20 22 23 25 26 25 24 23 22 21 21 20 19 17 16 16 15 16 17 16 14 15 17 20 21 21 22 22 22 22 21 21 19 18 18 17 17 17 17 16 16 15 13 11 9 7 6 6 7 7 6 5 4 5 6 6 6 5 3 1 1 2 3 4 4 2 4 6
17 18 19 19 19 19 18 17 17 16 16 17 17 17 17 16 16 18 19 20 21 22 22 22 22 21 20 20 19 18 17 16 16 17 17 17 16 15 16 19 20 20 20 20 20 19 20 20 19 19 18 17 17 16 16 15 15 14 13 12 11 10 8 6 5 6 7 6 5 4 4 5 5 6 7 5 4 3 1 1 3 3 1 1 3
16 17 18 18 17 17 17 17 17 17 17 17 17 17 17 17 17 18 18 18 18 18 18 18 19 19 19 18 17 16 16 16 18 19 20 19 18 17 18 19 19 19 19 19 18 17 18 18 18 18 18 17 17 17 17 16 15 14 12 10 9 8 7 6 5 6 7 7 5 4 5 6 5 5 5 4 4 5 4 4 4 4 3 1 3
16 16 17 17 16 15 15 16 16 16 16 16 16 17 17 18 19 18 17 16 16 17 17 16 16 18 18 17 15 13 14 16 19 20 21 21 20 18 18 18 18 19 19 18 17 17 17 17 18 18 18 17 17 17 17 16 15 14 13 11 8 6 5 4 3 4 6 8 7 5 6 7 6 5 3 3 4 5 5 5 5 5 3 0 3
17 17 17 16 15 15 15 15 14 14 14 14 14 15 17 19 19 19 17 15 14 14 15 15 16 18 19 17 14 12 13 16 18 20 22 23 21 19 17 17 18 18 18 17 17 17 17 17 17 17 17 17 17 17 16 15 14 14 14 12 9 6 4 3 2 3 4 7 8 7 7 8 8 7 5 4 4 4 4 5 5 4 2 1 1
18 18 19 18 18 17 16 14 13 12 12 13 14 15 17 18 19 19 18 16 15 15 15 15 17 17 18 18 16 15 16 17 18 19 21 23 22 20 18 18 18 18 17 16 15 16 16 16 15 15 16 16 16 16 15 14 13 13 13 12 11 9 7 5 3 2 2 4 6 6 6 7 7 6 4 3 3 2 2 2 2 2 2 2 2
17 18 18 17 18 18 17 16 14 12 11 12 14 15 16 17 18 18 18 18 18 17 17 16 15 15 15 16 17 17 18 19 19 18 19 21 21 20 20 19 18 17 16 15 15 14 14 14 14 14 14 15 15 15 14 13 13 13 12 11 10 10 9 7 4 2 2 1 2 3 3 3 3 2 1 1 1 1 0 1 1 1 0 2 3
17 16 16 15 16 16 16 16 15 14 12 11 11 12 15 16 16 16 15 16 16 16 16 16 15 13 13 15 15 16 17 18 18 18 19 19 20 20 20 19 19 18 16 15 14 14 13 13 13 13 13 13 14 14 13 12 12 12 12 11 10 9 8 8 6 4 3 2 1 1 1 1 2 2 3 2 2 1 1 1 2 2 2 2 2
15 15 15 14 14 13 13 14 16 16 14 12 11 11 12 14 14 13 13 13 13 13 14 15 16 15 14 14 14 15 16 17 17 17 18 19 19 19 20 20 20 19 18 17 16 15 13 12 11 12 13 13 13 13 12 11 12 11 11 11 10 8 7 6 4 3 2 2 2 3 3 4 4 5 5 5 5 5 4 3 4 4 4 3 3
16 16 16 15 13 12 12 14 17 17 15 14 13 12 12 12 13 12 11 10 10 10 11 12 14 14 13 13 14 14 15 16 17 17 17 17 18 18 18 19 19 19 19 19 18 16 13 11 11 12 13 13 13 12 11 10 11 11 11 11 10 9 8 6 4 2 2 3 3 3 3 3 3 3 3 4 5 5 6 6 6 7 7 7 7
18 17 16 15 15 14 14 14 15 15 15 14 14 13 13 12 11 11 9 8 8 8 8 8 11 12 12 12 12 13 13 14 15 15 15 15 15 16 17 17 18 18 19 20 20 18 15 12 11 12 14 15 15 14 12 11 12 12 11 11 11 10 10 9 7 4 3 3 5 5 4 4 3 3 3 4 4 5 5 5 6 6 8 9 8
15 15 14 13 13 13 12 12 12 14 14 13 12 11 11 11 10 8 6 5 5 6 6 6 7 9 9 10 10 10 10 11 12 13 13 13 13 13 14 15 16 17 18 20 20 20 17 14 12 12 14 16 17 17 15 13 13 13 13 12 12 12 11 11 10 8 6 5 5 6 7 7 7 6 5 5 5 5 5 6 7 8 8 8 8
11 11 10 10 10 11 10 10 10 12 13 12 10 9 9 8 8 8 6 5 5 5 4 3 5 6 7 8 8 7 7 8 9 10 11 12 11 12 12 12 13 15 16 18 20 20 19 17 15 14 15 16 18 19 18 15 14 14 14 14 13 13 13 12 12 11 9 7 7 8 8 9 9 9 8 8 7 7 7 7 8 8 9 8 8
9 9 9 9 9 9 9 10 10 10 10 9 9 9 8 8 8 8 7 6 6 5 3 2 2 2 4 5 5 4 4 5 6 7 9 10 10 10 10 11 12 14 15 16 17 19 19 18 17 17 16 17 18 19 19 17 15 14 14 13 13 14 14 14 14 13 11 9 8 9 10 10 11 12 12 12 11 10 10 10 9 9 8 7 7
9 9 9 9 9 9 9 10 10 10 9 7 6 6 5 5 7 7 7 6 5 4 3 2 2 1 1 2 2 1 2 3 4 5 7 8 8 8 8 10 11 13 13 14 15 16 18 18 18 17 17 17 17 18 18 17 16 14 13 13 14 15 16 16 15 14 13 12 10 9 10 11 12 13 14 15 15 14 13 13 12 11 10 9 8
11 11 10 10 10 9 8 8 10 10 10 9 6 4 3 4 5 6 5 4 3 2 2 2 2 2 2 2 2 2 3 3 4 6 7 7 7 8 9 9 10 11 12 13 14 14 15 16 17 16 16 16 17 17 16 15 14 14 13 13 15 16 18 19 18 16 15 14 12 11 11 11 13 14 16 17 17 17 17 16 15 13 10 10 10
12 12 11 11 10 9 8 9 10 12 12 10 8 5 3 4 5 4 4 3 3 3 3 3 4 4 5 5 5 4 5 5 7 7 7 7 9 9 9 9 9 9 10 12 13 13 14 15 15 15 16 16 16 16 15 13 13 13 14 15 16 17 18 20 20 19 16 14 14 12 12 11 12 13 15 16 18 18 18 17 17 14 11 12 12
Wind_Direction
219 226 233 236 240 245 251 259 267 287 316 316 310 303 303 305 307 309 307 304 302 303 306 312 314 310 309 313 314 313 309 295 280 273 263 255 252 250 245 240 239 238 237 235 230 227 227 229 232 233 232 232 229 227 227 222 221 222 220 219 223 224 222 223 227 217 201 200 208 204 199 202 203 203 206 207 211 210 202 200 204 205 204 202 203
207 231 182 171 178 184 185 153 130 117 75 342 316 315 316 315 311 307 306 305 304 304 306 310 313 313 313 311 305 305 308 300 283 271 265 256 251 251 250 243 238 237 237 235 231 229 229 229 230 229 229 230 229 227 228 225 223 222 220 218 219 222 222 220 222 218 203 198 204 202 197 202 207 208 210 211 214 210 197 191 195 198 199 199 199
104 75 99 111 120 121 107 89 103 117 117 316 317 322 319 313 306 305 309 311 311 310 310 309 309 312 316 314 304 302 306 305 292 276 268 259 253 254 253 244 235 235 235 230 228 230 230 229 229 226 225 228 230 233 232 228 227 228 225 221 220 221 222 221 218 214 206 199 199 200 197 202 209 210 207 207 211 208 197 191 191 190 189 190 191
75 75 104 117 116 110 104 87 62 360 305 315 325 323 317 313 310 314 318 320 324 324 318 313 311 312 317 318 312 308 310 312 307 292 278 263 254 257 258 247 232 232 233 227 227 230 229 227 226 226 227 227 227 233 236 233 232 234 230 225 223 222 221 220 218 214 209 202 199 201 201 202 206 206 203 199 201 202 196 195 195 190 185 183 187
133 104 118 124 107 98 105 118 31 328 324 338 344 333 327 323 320 323 326 326 331 332 325 320 321 322 324 322 316 315 316 320 322 309 290 268 255 257 261 253 238 232 230 225 225 227 226 225 225 228 231 230 230 233 236 233 230 233 234 229 223 220 220 220 217 213 211 205 201 202 205 205 202 202 202 194 191 194 192 193 195 191 185 183 187
122 125 131 121 98 74 69 112 281 344 6 9 4 352 345 341 336 336 338 335 331 332 332 332 331 331 332 328 321 322 324 322 321 314 294 268 253 254 256 252 245 241 232 223 224 227 228 229 231 234 237 236 235 235 234 230 227 230 232 230 226 221 219 219 214 208 209 210 207 204 205 205 200 200 203 194 189 191 187 184 187 189 188 186 186
108 122 124 102 86 56 48 57 45 43 43 31 14 2 355 353 351 349 348 344 333 332 343 351 346 336 332 331 327 329 332 327 321 311 294 272 253 255 255 242 240 244 234 224 227 231 233 235 236 239 242 239 234 231 231 229 228 229 229 228 228 224 218 216 213 209 210 214 213 208 204 203 198 197 201 198 198 201 195 189 187 187 188 187 186
88 115 121 106 80 56 53 57 60 62 56 38 16 2 356 353 352 352 355 356 348 341 348 357 353 342 337 334 330 331 333 331 327 314 299 284 255 251 251 242 241 244 234 228 231 233 235 237 239 240 241 238 230 227 232 234 229 228 228 225 223 222 217 214 215 214 212 215 215 208 202 201 197 196 201 201 203 206 205 203 199 193 189 186 186
76 110 114 102 79 64 58 60 67 68 56 37 17 5 0 358 358 2 5 6 359 345 346 351 351 350 350 347 341 339 337 335 335 325 314 317 296 265 251 248 248 245 239 231 227 228 233 238 242 243 241 237 231 228 231 234 232 230 229 224 219 219 216 215 218 215 208 209 211 205 200 200 196 197 203 203 202 203 203 206 208 199 190 185 185
100 111 101 90 79 67 62 69 73 68 51 39 31 25 24 22 22 22 18 14 6 354 351 352 354 0 3 359 355 353 352 351 350 346 340 336 325 306 288 266 249 242 247 242 233 232 237 241 242 243 243 238 233 230 227 228 230 233 233 228 220 217 215 214 215 211 204 204 206 202 200 199 198 201 206 205 202 203 205 206 204 195 187 185 185
90 101 98 94 85 71 71 75 73 63 54 51 49 46 44 42 41 40 34 26 15 3 357 357 5 16 17 10 8 10 14 16 14 17 11 339 327 336 351 331 222 216 254 254 248 247 243 242 243 243 245 241 233 231 227 224 228 231 234 234 228 222 220 215 211 208 205 203 203 203 201 199 200 204 208 208 204 203 208 208 200 192 190 190 190
77 85 94 97 85 76 79 79 74 66 64 63 61 58 55 53 52 49 44 41 36 30 29 29 33 36 35 35 35 33 35 38 37 43 48 19 1 357 346 353 148 176 203 220 238 249 242 239 243 246 249 248 240 235 228 223 226 226 225 224 221 218 220 218 212 209 207 203 201 202 202 201 203 205 207 209 206 203 209 209 199 192 194 196 197
78 78 91 95 85 80 82 81 78 75 75 74 69 64 60 57 54 51 49 48 46 43 42 41 44 46 48 52 51 44 49 55 50 44 40 30 21 16 13 12 22 76 246 227 216 230 242 242 250 254 250 242 236 233 223 215 219 222 214 208 206 203 207 214 214 214 214 208 202 202 202 203 207 208 207 210 208 202 205 207 202 198 201 202 203
85 82 92 94 86 84 85 85 84 84 85 81 73 66 60 57 55 54 53 52 52 50 47 46 47 47 47 54 64 76 82 77 64 51 43 39 31 22 21 19 14 28 5 274 245 244 242 239 249 256 246 229 221 219 214 210 213 217 211 203 202 200 200 208 213 214 215 211 203 200 201 204 209 209 206 207 207 203 201 203 202 204 207 210 212
93 91 96 94 89 88 90 92 92 92 90 85 76 69 64 60 59 57 56 58 59 58 56 55 55 54 55 65 76 83 81 75 67 59 51 50 49 43 39 36 27 17 13 7 282 239 229 225 235 247 247 226 208 203 208 214 215 215 211 201 201 202 201 206 212 212 211 208 203 202 205 206 208 207 203 199 200 202 205 206 207 209 212 216 219
93 93 97 97 94 94 97 99 100 96 90 84 80 75 70 67 65 64 64 67 69 68 65 64 66 67 68 73 76 76 74 71 69 65 61 59 60 60 55 50 45 37 24 357 211 181 176 180 205 217 210 186 179 186 203 213 211 207 204 196 193 196 196 198 200 197 198 202 202 205 207 203 197 197 199 199 202 206 211 213 214 216 215 217 218
85 87 94 98 97 100 104 105 101 94 85 80 80 79 76 72 70 69 69 72 74 74 73 74 76 77 76 74 75 77 77 76 72 69 67 63 60 60 56 52 51 46 39 37 74 100 89 78 87 137 162 151 148 166 193 206 204 202 199 189 186 189 187 187 188 181 186 199 199 200 203 199 190 188 192 197 202 206 210 212 213 216 217 216 213
81 80 87 95 99 104 109 108 103 94 85 80 80 80 77 74 72 72 71 74 77 78 80 81 82 82 80 77 77 79 79 76 69 64 64 61 57 54 48 47 48 45 41 42 50 56 57 57 70 131 145 132 131 147 174 193 187 180 179 176 175 175 165 167 177 176 182 193 191 191 196 194 191 190 188 192 199 202 206 209 208 210 214 212 208
84 80 85 93 98 103 110 111 106 99 91 86 84 82 81 79 77 76 75 77 80 82 83 86 86 86 85 83 82 82 80 74 65 58 57 57 55 54 50 51 52 47 41 41 45 46 45 55 100 129 128 118 116 118 123 140 144 138 139 144 145 140 133 136 147 154 160 171 178 187 192 189 193 197 191 194 205 208 207 211 212 213 217 218 219
87 87 90 93 93 95 101 106 105 101 95 90 88 86 85 84 81 80 79 80 82 84 85 88 89 88 87 86 85 82 79 76 71 66 66 66 63 63 65 68 70 69 62 58 58 58 60 74 83 75 74 88 94 99 104 107 112 114 117 120 118 116 121 125 127 135 143 147 157 171 178 180 190 198 193 198 210 213 209 214 222 225 229 234 234
97 99 96 93 91 89 90 93 96 98 96 93 92 90 88 87 84 83 83 83 83 83 84 86 87 86 84 82 80 78 75 74 74 73 73 73 72 72 75 78 81 82 78 73 72 70 71 81 78 61 54 72 79 83 96 102 104 104 101 98 101 108 118 119 115 122 131 137 148 159 165 174 183 184 187 196 204 205 201 206 215 218 225 237 236
99 100 97 94 91 88 87 88 89 93 96 96 95 94 92 91 90 88 88 87 85 84 83 84 84 84 83 81 78 76 75 73 72 71 69 69 69 70 73 76 78 79 78 77 77 76 76 81 79 68 59 63 63 72 84 78 66 68 74 80 92 103 110 109 107 110 113 121 141 153 153 163 176 176 182 192 196 201 206 209 217 218 220 234 239
95 96 96 94 93 92 92 93 94 97 99 98 98 98 97 95 95 95 93 91 90 89 87 86 85 84 83 82 80 79 77 74 72 71 69 67 67 67 67 67 67 69 71 71 71 73 75 77 79 78 72 66 70 82 79 54 36 44 57 59 60 59 50 51 51 40 51 73 102 137 133 127 140 150 151 152 167 199 211 209 215 219 218 224 231
95 97 98 98 99 99 98 99 99 101 102 103 103 104 103 101 100 98 95 93 92 91 90 89 88 87 84 83 81 79 77 74 71 68 67 65 64 64 64 64 62 62 66 67 65 65 66 67 69 73 74 77 84 90 86 73 63 65 67 51 36 18 359 356 359 1 3 7 12 30 62 77 97 121 120 115 117 121 130 144 148 152 169 190 200
97 98 100 102 104 105 105 106 106 105 106 106 105 104 103 102 99 96 94 93 91 90 89 88 87 86 85 82 79 77 75 74 71 69 67 66 64 63 62 62 61 60 62 64 64 64 64 64 63 64 66 70 73 75 81 87 93 101 103 95 81 37 3 346 330 332 350 21 49 63 72 73 81 106 110 112 118 122 121 118 116 118 118 116 116
98 99 101 103 106 109 111 111 111 110 108 106 103 101 99 97 94 92 91 90 88 87 87 86 84 83 81 79 77 74 72 71 70 69 68 67 66 63 61 60 58 58 60 62 64 64 64 63 62 61 62 64 63 64 68 74 81 88 89 84 80 77 75 70 44 31 62 90 101 108 110 107 108 111 113 122 159 180 185 199 197 200 211 203 182
95 97 100 104 107 109 110 111 110 109 106 103 101 98 96 94 93 90 89 89 89 88 87 85 84 83 81 80 79 76 73 71 69 67 66 65 64 62 60 60 58 58 59 60 60 61 61 60 60 60 59 60 61 62 64 64 64 63 59 52 49 49 45 40 37 40 53 70 88 110 120 136 268 299 301 287 281 276 270 268 255 235 234 234 227
92 94 97 101 104 105 106 107 107 106 105 103 101 98 96 95 93 91 88 88 88 88 87 86 84 83 82 81 80 79 76 72 70 67 65 65 65 64 62 61 60 61 62 62 63 65 66 66 65 65 64 64 64 63 62 61 59 58 56 52 49 43 35 24 15 22 30 28 21 9 357 354 6 15 16 10 2 353 332 182 108 109 119 149 168
92 93 94 96 99 102 104 105 105 106 105 104 101 97 95 93 93 91 90 88 87 86 86 84 82 81 81 79 76 75 73 70 68 67 66 65 65 64 63 63 63 66 69 73 76 77 76 73 71 69 67 66 65 63 61 60 60 60 60 59 58 56 53 48 46 51 53 49 46 49 57 63 60 52 47 43 35 34 55 101 127 129 123 126 142
96 95 93 93 95 97 98 99 100 101 102 102 100 98 94 91 91 90 89 87 86 85 83 81 77 76 77 76 73 71 69 68 67 67 67 66 65 64 63 63 64 66 69 74 77 76 74 72 71 69 67 66 65 63 61 60 59 59 59 60 60 60 58 56 58 59 59 58 58 58 58 57 52 48 46 36 15 12 31 93 173 188 187 171 158
104 100 97 96 95 94 94 94 94 94 95 96 97 97 96 93 90 88 88 88 86 83 82 81 79 76 74 75 75 73 71 69 67 65 65 65 64 65 65 64 64 64 63 64 67 67 65 64 62 61 59 58 58 57 56 56 55 55 55 56 57 58 57 57 60 61 61 61 61 57 49 39 33 40 46 35 12 358 353 353 171 183 199 195 164
111 107 104 101 100 97 94 92 92 91 91 91 90 92 94 93 92 89 88 87 86 84 83 82 81 80 77 75 76 75 73 69 64 61 60 60 60 63 65 65 65 63 60 61 63 63 61 60 59 57 55 53 52 51 51 51 49 48 47 48 51 53 52 51 52 52 55 60 60 53 45 24 9 21 47 39 25 6 346 341 33 173 185 184 168
117 115 112 108 106 103 99 96 94 92 91 90 88 86 86 89 91 91 89 87 85 84 84 83 82 81 79 76 74 73 73 70 66 60 56 55 57 62 66 68 67 64 61 61 62 61 58 56 54 51 49 48 46 45 46 47 45 41 39 37 39 43 44 43 44 45 49 54 53 44 30 8 344 319 300 298 334 3 346 349 11 165 175 179 181
122 123 122 119 114 109 106 104 101 98 96 92 88 84 80 80 84 88 90 88 87 85 84 85 84 82 79 76 73 72 72 71 66 59 51 49 53 62 69 71 69 66 62 61 61 61 58 55 51 47 43 40 37 35 36 38 38 37 36 33 31 34 33 30 31 35 38 36 34 38 43 34 17 346 303 269 241 240 261 287 290 205 176 180 194
125 125 124 124 122 117 114 114 113 109 104 97 87 80 76 76 81 86 88 88 88 89 88 87 85 82 78 73 69 67 67 67 63 57 50 48 55 68 75 73 68 64 61 59 57 57 56 54 51 47 41 38 34 31 28 27 27 29 31 30 28 28 30 30 24 22 22 17 14 32 49 44 43 47 41 23 332 271 243 243 264 266 214 176 193
131 129 125 123 122 120 118 118 117 113 107 99 88 80 77 79 85 90 90 88 89 90 89 87 85 81 76 70 63 59 60 63 63 61 56 53 57 68 74 72 68 66 63 59 57 56 55 54 52 48 45 41 38 34 31 27 24 22 23 23 22 21 29 42 39 25 18 9 360 10 28 25 29 47 51 38 19 11 352 284 299 306 285 169 161
138 138 135 130 127 124 120 119 117 112 105 97 91 87 85 85 89 94 95 93 90 90 90 88 85 78 72 66 58 53 57 65 66 63 61 59 60 65 68 67 66 65 63 59 56 54 52 51 49 46 45 43 40 39 38 35 31 26 21 16 12 12 20 36 40 31 24 18 12 17 32 33 35 46 47 31 6 350 328 305 315 336 332 252 162
142 142 141 140 138 134 128 123 118 113 107 102 98 93 88 86 89 95 99 95 90 89 91 87 78 68 62 59 53 49 58 68 68 63 60 61 63 65 65 63 62 61 59 55 52 50 48 47 45 42 39 38 37 38 38 36 34 31 26 18 9 6 9 21 34 36 35 36 39 48 59 63 68 75 67 35 14 6 351 333 329 338 350 319 186
136 136 139 142 143 143 139 133 127 123 119 114 107 97 90 87 89 94 100 100 94 90 87 81 73 66 61 58 54 52 60 66 66 63 59 58 59 60 60 57 55 54 53 50 47 45 43 42 40 38 35 32 31 32 33 32 30 30 32 30 24 15 6 2 17 42 52 54 60 74 92 97 96 96 92 76 61 55 49 40 30 30 51 86 171
128 125 125 126 128 132 137 137 137 136 131 124 116 106 97 93 93 96 98 98 94 89 84 80 77 74 67 60 57 60 64 66 66 64 60 57 55 54 51 47 44 44 45 44 40 38 36 35 33 32 30 27 26 26 27 26 25 27 32 35 33 27 19 11 5 11 42 65 73 84 102 110 107 102 98 86 71 58 54 63 69 68 72 88 110
133 129 127 125 122 123 124 123 122 123 124 125 123 115 106 101 100 98 94 89 85 83 81 80 80 77 67 57 53 56 62 67 67 62 57 54 52 49 45 40 37 34 34 35 33 30 28 26 24 24 24 22 21 21 22 22 22 24 28 33 34 31 25 20 15 357 338 14 70 84 97 109 106 94 79 70 67 62 326 265 249 242 172 133 150
143 139 135 132 130 128 125 118 111 111 118 128 130 122 113 108 104 100 94 89 83 80 77 76 74 71 64 56 50 49 55 60 61 56 52 49 47 43 39 37 33 28 26 25 22 20 18 17 17 19 21 21 20 19 19 18 18 22 26 30 32 32 27 22 20 8 343 324 310 316 316 292 289 304 312 313 313 301 227 202 211 218 210 195 198
149 150 148 143 140 137 130 118 108 106 111 121 131 132 125 117 111 106 101 95 88 82 76 70 67 64 61 56 50 46 48 52 54 51 47 44 40 37 35 32 30 26 23 17 12 9 9 11 14 16 19 21 22 22 19 15 13 16 22 26 28 28 25 16 6 350 329 297 271 288 297 283 274 277 280 281 283 279 262 241 239 244 248 254 265
137 142 149 151 146 141 135 124 115 108 106 110 120 131 131 123 114 109 109 107 98 90 81 72 65 62 59 55 51 47 45 47 48 46 43 39 36 33 31 29 27 25 22 18 15 13 12 13 18 20 18 18 21 23 21 16 10 9 12 17 19 18 15 7 353 323 284 247 233 253 286 282 262 257 262 266 270 274 271 262 258 262 263 264 268
127 127 132 134 131 129 130 127 121 116 112 111 114 121 126 124 117 110 110 112 108 100 93 81 69 60 54 51 49 44 38 38 39 39 38 35 32 30 28 25 23 22 21 19 18 18 17 16 20 21 18 16 18 19 19 18 14 8 6 8 9 9 6 1 353 336 299 245 228 235 257 268 259 244 244 253 262 274 288 289 286 292 291 280 268
128 126 127 128 129 129 132 131 123 118 117 116 115 118 124 129 130 127 129 133 125 115 106 90 73 60 52 47 43 37 32 29 28 29 31 29 25 25 25 23 20 18 17 16 16 17 19 20 21 21 20 20 20 18 17 18 16 11 6 5 5 4 1 356 350 340 319 280 249 238 242 253 259 254 251 261 270 279 295 305 307 310 306 286 257
133 133 133 137 139 139 142 142 134 126 123 121 117 116 122 130 135 139 145 147 138 132 125 99 74 60 49 43 38 31 26 20 17 19 21 19 16 15 16 15 14 12 11 12 13 13 16 19 20 20 22 22 21 19 17 15 12 7 4 5 6 6 2 357 352 344 331 307 280 258 247 247 251 251 253 261 269 275 286 298 304 306 300 276 245
142 142 143 148 151 150 150 154 154 149 144 138 130 125 127 134 138 142 149 152 143 139 143 132 101 68 48 45 42 25 2 1 7 9 7 7 7 5 3 4 4 2 4 8 10 10 11 13 14 16 18 17 15 15 15 13 10 6 5 9 12 12 9 3 355 348 340 325 302 280 265 257 254 254 256 259 262 268 276 283 290 295 292 271 245
161 159 156 158 163 163 159 161 164 162 159 158 153 144 143 149 148 149 158 168 165 158 164 166 153 146 113 65 47 324 295 317 349 352 349 351 353 351 350 352 353 353 356 2 4 6 8 9 9 11 12 11 9 9 11 12 13 12 13 16 17 15 13 8 360 351 344 335 321 301 282 269 262 260 261 263 266 272 277 281 286 287 277 259 245
181 181 178 178 179 179 180 183 182 177 173 172 168 166 180 189 175 158 154 166 172 171 184 201 202 210 236 278 298 280 272 292 319 327 329 334 337 337 338 343 345 347 351 353 356 1 4 3 3 5 8 7 7 7 8 12 17 17 16 16 16 16 14 10 2 354 346 339 331 319 301 285 274 268 266 266 269 273 275 280 287 285 265 244 240
190 188 189 190 189 188 193 195 190 184 181 179 173 172 192 207 203 198 204 222 241 255 257 257 264 270 276 286 294 294 294 302 311 313 315 319 323 326 328 331 334 338 342 344 347 352 355 353 353 357 360 2 3 3 3 6 9 9 6 6 7 9 10 8 4 358 350 341 335 328 315 300 286 278 272 269 270 271 273 278 286 284 258 233 232
Height
1517 1516 1516 1515 1515 1515 1515 1514 1513 1512 1511 1510 1509 1508 1507 1506 1504 1503 1502 1500 1499 1497 1496 1494 1492 1490 1488 1487 1485 1484 1482 1482 1481 1480 1480 1480 1480 1481 1481 1481 1482 1482 1482 1483 1484 1485 1486 1487 1489 1492 1494 1496 1498 1499 1501 1503 1504 1505 1507 1509 1510 1511 1511 1512 1515 1516 1518 1520 1522 1524 1527 1529 1530 1531 1532 1533 1534 1536 1537 1538 1540 1541 1542 1543 1545
1516 1516 1515 1515 1515 1514 1514 1513 1512 1511 1510 1509 1508 1507 1506 1505 1504 1502 1500 1499 1497 1496 1494 1492 1490 1488 1487 1485 1484 1482 1481 1481 1480 1479 1478 1478 1479 1479 1479 1479 1479 1480 1481 1481 1482 1483 1485 1486 1488 1490 1492 1495 1497 1499 1500 1501 1503 1504 1506 1507 1508 1509 1510 1511 1513 1515 1517 1519 1521 1523 1525 1527 1528 1530 1531 1532 1534 1535 1536 1537 1538 1540 1541 1543 1544
1516 1515 1515 1514 1514 1513 1513 1512 1511 1510 1509 1508 1507 1506 1505 1504 1503 1501 1499 1498 1496 1494 1492 1490 1488 1487 1485 1484 1482 1481 1480 1479 1478 1477 1477 1477 1477 1477 1477 1477 1478 1478 1479 1480 1481 1483 1484 1485 1487 1489 1491 1493 1495 1497 1499 1500 1501 1502 1503 1505 1506 1508 1509 1510 1512 1514 1516 1518 1519 1521 1523 1525 1527 1529 1530 1531 1533 1534 1535 1536 1538 1539 1540 1542 1544
1516 1515 1515 1514 1513 1512 1512 1511 1511 1510 1508 1507 1507 1506 1505 1503 1501 1499 1498 1496 1494 1493 1490 1489 1487 1486 1484 1483 1482 1480 1479 1478 1477 1476 1476 1476 1476 1476 1476 1476 1477 1478 1478 1479 1481 1483 1483 1484 1486 1488 1490 1492 1494 1496 1498 1499 1500 1500 1501 1503 1504 1506 1507 1509 1511 1514 1515 1516 1518 1519 1521 1523 1526 1528 1529 1530 1532 1533 1535 1536 1537 1538 1539 1541 1543
1515 1515 1514 1513 1512 1512 1511 1510 1510 1509 1507 1506 1506 1505 1503 1502 1500 1498 1496 1494 1493 1491 1489 1487 1486 1484 1484 1482 1481 1480 1478 1477 1476 1476 1476 1476 1476 1476 1475 1475 1476 1476 1477 1479 1480 1481 1482 1483 1485 1487 1489 1490 1492 1494 1496 1498 1499 1499 1500 1502 1503 1504 1506 1508 1510 1513 1515 1515 1516 1518 1520 1522 1525 1527 1528 1529 1531 1532 1534 1535 1536 1537 1538 1540 1542
1514 1514 1513 1512 1512 1511 1510 1509 1508 1507 1507 1506 1505 1504 1502 1500 1498 1496 1494 1493 1491 1489 1488 1486 1485 1484 1483 1481 1480 1479 1478 1477 1476 1476 1476 1476 1477 1476 1476 1476 1476 1476 1477 1479 1480 1480 1481 1482 1484 1486 1488 1489 1491 1493 1494 1496 1498 1498 1499 1500 1501 1503 1504 1505 1508 1511 1513 1514 1515 1517 1519 1521 1523 1525 1526 1528 1530 1531 1532 1533 1535 1536 1537 1539 1540
1514 1514 1513 1512 1511 1510 1509 1508 1508 1507 1506 1505 1504 1503 1501 1499 1497 1495 1493 1492 1490 1488 1487 1485 1484 1483 1482 1481 1480 1479 1478 1477 1476 1476 1476 1477 1477 1477 1476 1477 1476 1476 1477 1478 1479 1480 1481 1482 1483 1485 1486 1488 1490 1491 1492 1493 1495 1496 1497 1499 1500 1501 1502 1503 1505 1508 1509 1511 1514 1515 1517 1520 1522 1524 1526 1527 1529 1530 1531 1531 1533 1534 1536 1538 1539
1513 1513 1512 1512 1510 1509 1508 1508 1507 1506 1506 1505 1503 1502 1500 1498 1496 1494 1493 1491 1489 1488 1486 1485 1484 1483 1482 1481 1480 1479 1478 1477 1477 1477 1477 1477 1477 1477 1477 1477 1477 1477 1478 1479 1479 1480 1481 1481 1482 1483 1484 1486 1487 1489 1490 1491 1493 1494 1495 1497 1498 1499 1501 1502 1503 1505 1506 1509 1511 1513 1515 1517 1520 1523 1524 1525 1526 1528 1529 1530 1531 1532 1534 1536 1539
1513 1512 1512 1511 1510 1509 1508 1508 1507 1506 1505 1504 1503 1501 1499 1497 1495 1494 1492 1491 1489 1488 1486 1485 1484 1483 1482 1481 1480 1479 1478 1477 1476 1477 1478 1478 1479 1478 1478 1478 1478 1477 1478 1478 1479 1479 1480 1481 1481 1482 1483 1485 1486 1488 1488 1489 1490 1491 1492 1494 1496 1497 1498 1500 1501 1503 1504 1506 1509 1511 1513 1515 1518 1520 1521 1522 1524 1526 1528 1529 1531 1532 1534 1536 1538
1513 1512 1511 1510 1509 1509 1508 1507 1507 1506 1505 1504 1503 1501 1499 1497 1496 1494 1493 1491 1489 1488 1486 1485 1484 1483 1482 1481 1480 1479 1478 1477 1477 1478 1479 1480 1480 1479 1479 1478 1478 1477 1477 1478 1478 1479 1480 1480 1480 1480 1482 1484 1486 1487 1487 1488 1489 1491 1492 1492 1493 1493 1495 1497 1498 1500 1502 1503 1506 1509 1510 1512 1514 1516 1517 1520 1523 1525 1526 1528 1529 1531 1533 1534 1536
1512 1511 1510 1510 1509 1509 1508 1507 1507 1506 1505 1504 1503 1501 1500 1498 1497 1495 1493 1492 1490 1488 1486 1485 1484 1483 1482 1481 1480 1479 1479 1478 1478 1479 1480 1481 1480 1480 1479 1479 1478 1478 1478 1478 1478 1479 1479 1479 1479 1480 1482 1484 1485 1486 1487 1487 1488 1490 1492 1493 1493 1493 1493 1494 1496 1497 1499 1501 1503 1505 1507 1509 1512 1513 1516 1519 1522 1523 1525 1526 1528 1530 1530 1532 1534
1512 1511 1510 1510 1509 1509 1508 1507 1507 1506 1505 1504 1503 1502 1501 1500 1498 1497 1495 1493 1491 1489 1487 1485 1484 1483 1482 1481 1480 1480 1480 1480 1480 1480 1481 1481 1481 1481 1480 1480 1479 1479 1479 1479 1479 1479 1480 1479 1479 1481 1482 1483 1484 1485 1486 1487 1487 1489 1491 1492 1493 1493 1492 1493 1495 1497 1497 1498 1500 1502 1505 1508 1510 1512 1515 1518 1520 1522 1524 1525 1527 1528 1529 1531 1532
1512 1510 1510 1510 1509 1509 1508 1508 1507 1507 1506 1505 1505 1504 1503 1501 1500 1498 1496 1494 1492 1490 1489 1487 1485 1484 1483 1482 1481 1481 1481 1481 1481 1482 1483 1483 1483 1482 1482 1481 1481 1480 1480 1480 1480 1480 1480 1480 1480 1481 1482 1483 1483 1484 1485 1486 1486 1488 1490 1491 1491 1492 1492 1494 1495 1497 1496 1497 1499 1501 1504 1507 1509 1512 1514 1516 1519 1521 1522 1524 1526 1527 1529 1530 1532
1511 1511 1510 1510 1510 1509 1509 1508 1508 1507 1507 1507 1506 1505 1504 1503 1501 1500 1498 1496 1494 1493 1491 1489 1487 1485 1484 1483 1483 1483 1483 1483 1483 1483 1484 1484 1484 1484 1483 1483 1482 1482 1481 1481 1481 1481 1481 1481 1481 1481 1482 1483 1483 1483 1485 1485 1486 1487 1489 1489 1490 1490 1492 1493 1494 1496 1497 1497 1500 1502 1504 1506 1509 1511 1514 1515 1517 1519 1520 1522 1524 1526 1527 1529 1530
1511 1511 1511 1510 1510 1509 1509 1509 1508 1508 1508 1508 1507 1506 1505 1504 1503 1501 1500 1498 1497 1496 1494 1492 1490 1488 1487 1486 1486 1486 1485 1485 1485 1485 1486 1486 1485 1485 1485 1484 1483 1483 1482 1482 1482 1482 1481 1481 1481 1482 1482 1483 1483 1483 1484 1485 1486 1487 1487 1488 1489 1490 1492 1493 1494 1495 1496 1498 1500 1502 1503 1505 1508 1511 1513 1514 1516 1518 1520 1521 1523 1524 1525 1527 1528
1512 1512 1511 1511 1510 1510 1510 1509 1509 1509 1509 1509 1508 1507 1507 1506 1504 1503 1502 1501 1499 1498 1497 1495 1494 1492 1491 1491 1490 1489 1488 1488 1488 1488 1488 1489 1488 1487 1487 1486 1485 1484 1484 1483 1483 1482 1483 1482 1482 1482 1482 1483 1483 1484 1484 1485 1485 1487 1487 1488 1489 1491 1492 1493 1494 1495 1496 1498 1501 1503 1504 1505 1507 1510 1512 1514 1516 1517 1519 1520 1521 1522 1523 1524 1525
1512 1512 1511 1511 1510 1510 1510 1510 1510 1510 1510 1509 1509 1509 1508 1507 1506 1505 1504 1503 1501 1500 1499 1498 1497 1496 1495 1494 1493 1492 1491 1491 1491 1490 1491 1491 1490 1489 1489 1488 1487 1486 1485 1485 1484 1484 1484 1483 1483 1483 1484 1484 1484 1485 1486 1486 1486 1487 1488 1488 1489 1491 1492 1492 1493 1495 1497 1498 1501 1504 1506 1507 1508 1510 1512 1513 1515 1516 1517 1518 1519 1519 1520 1521 1523
1513 1512 1512 1511 1511 1511 1511 1511 1511 1511 1511 1511 1511 1510 1510 1509 1508 1507 1506 1505 1503 1502 1501 1500 1499 1498 1497 1497 1496 1495 1494 1495 1494 1494 1493 1493 1492 1491 1491 1489 1488 1488 1488 1488 1487 1486 1486 1486 1486 1486 1486 1486 1486 1487 1488 1488 1488 1488 1488 1489 1490 1492 1493 1494 1494 1495 1497 1498 1501 1504 1505 1506 1508 1509 1510 1512 1513 1515 1516 1516 1517 1517 1518 1520 1521
1513 1513 1513 1512 1512 1512 1512 1512 1512 1512 1512 1512 1512 1512 1512 1511 1510 1509 1508 1507 1506 1505 1504 1502 1501 1500 1500 1500 1499 1498 1498 1498 1497 1497 1496 1495 1494 1493 1492 1491 1490 1491 1491 1491 1490 1489 1489 1489 1488 1489 1489 1489 1489 1490 1491 1491 1490 1490 1491 1492 1493 1494 1495 1497 1497 1497 1499 1501 1502 1504 1505 1505 1506 1508 1509 1511 1512 1513 1515 1515 1515 1516 1518 1519 1520
1514 1514 1514 1514 1514 1514 1513 1513 1513 1513 1513 1513 1513 1513 1513 1513 1512 1511 1510 1509 1508 1507 1506 1505 1503 1503 1503 1502 1501 1501 1501 1500 1500 1500 1499 1498 1497 1496 1494 1493 1492 1493 1493 1493 1493 1492 1492 1492 1492 1493 1493 1493 1493 1494 1495 1495 1495 1494 1494 1495 1495 1496 1498 1498 1499 1499 1500 1502 1503 1504 1505 1505 1506 1507 1508 1510 1511 1512 1514 1514 1514 1516 1517 1517 1517
1515 1515 1515 1515 1516 1515 1515 1514 1514 1514 1515 1515 1515 1515 1515 1515 1514 1513 1513 1512 1511 1510 1509 1508 1506 1506 1505 1505 1504 1504 1504 1504 1503 1503 1502 1501 1500 1499 1497 1496 1496 1496 1496 1495 1495 1496 1496 1496 1497 1498 1498 1497 1497 1498 1498 1498 1498 1498 1498 1497 1498 1499 1500 1500 1500 1501 1502 1502 1504 1504 1505 1505 1506 1507 1508 1509 1510 1511 1512 1513 1513 1514 1515 1516 1515
1517 1517 1517 1517 1517 1517 1516 1516 1516 1516 1516 1517 1517 1516 1517 1517 1516 1515 1515 1514 1513 1512 1511 1511 1510 1508 1508 1507 1507 1507 1507 1507 1506 1506 1505 1504 1503 1502 1501 1500 1501 1500 1499 1498 1498 1499 1500 1500 1500 1501 1502 1501 1501 1501 1502 1502 1502 1501 1501 1501 1502 1502 1503 1502 1503 1503 1503 1504 1504 1505 1505 1506 1506 1507 1508 1509 1510 1510 1511 1511 1512 1513 1514 1514 1515
1519 1519 1519 1519 1519 1519 1519 1518 1518 1518 1518 1519 1518 1518 1518 1519 1518 1517 1517 1516 1515 1514 1513 1513 1512 1511 1511 1510 1510 1510 1510 1510 1509 1508 1508 1507 1506 1505 1505 1505 1505 1503 1502 1502 1502 1503 1503 1504 1504 1504 1504 1504 1504 1504 1504 1504 1504 1504 1505 1505 1505 1505 1506 1505 1505 1505 1505 1506 1506 1507 1507 1507 1507 1508 1509 1509 1510 1510 1510 1511 1511 1512 1513 1514 1514
1521 1521 1521 1521 1520 1521 1521 1521 1521 1521 1521 1521 1520 1520 1520 1520 1520 1520 1519 1518 1517 1516 1516 1515 1514 1513 1513 1513 1513 1513 1513 1512 1512 1511 1510 1510 1509 1508 1508 1507 1507 1506 1505 1505 1506 1506 1506 1507 1507 1507 1507 1506 1506 1506 1505 1505 1506 1506 1507 1507 1507 1507 1507 1507 1507 1507 1507 1508 1508 1509 1509 1509 1509 1509 1509 1510 1511 1511 1511 1511 1512 1512 1513 1513 1514
1523 1523 1523 1523 1523 1523 1523 1523 1523 1523 1523 1523 1523 1522 1522 1522 1522 1522 1521 1520 1519 1518 1518 1517 1516 1515 1515 1515 1515 1515 1515 1515 1514 1514 1513 1512 1511 1511 1510 1509 1509 1508 1507 1508 1508 1509 1509 1509 1509 1509 1509 1509 1509 1508 1508 1507 1508 1508 1508 1508 1508 1508 1508 1509 1509 1509 1509 1509 1510 1510 1511 1511 1511 1511 1512 1512 1512 1512 1513 1513 1513 1513 1513 1514 1514
1525 1525 1525 1525 1525 1525 1525 1525 1525 1525 1525 1525 1525 1525 1525 1524 1524 1524 1523 1522 1521 1521 1521 1520 1519 1519 1518 1518 1519 1519 1518 1518 1517 1517 1516 1515 1514 1514 1513 1512 1512 1511 1510 1511 1511 1511 1511 1511 1511 1510 1510 1510 1510 1509 1509 1510 1510 1510 1510 1510 1510 1510 1510 1510 1510 1510 1510 1511 1511 1511 1512 1512 1513 1513 1514 1514 1514 1514 1514 1514 1514 1514 1515 1515 1515
1527 1526 1527 1527 1528 1528 1527 1527 1527 1527 1527 1527 1527 1527 1527 1526 1525 1525 1526 1525 1525 1524 1524 1524 1523 1523 1522 1522 1522 1522 1522 1521 1521 1520 1520 1519 1518 1517 1517 1516 1516 1515 1514 1514 1514 1514 1513 1513 1512 1512 1512 1511 1511 1511 1511 1512 1512 1512 1512 1512 1512 1512 1512 1512 1512 1512 1512 1513 1513 1514 1514 1514 1515 1515 1515 1515 1514 1514 1514 1515 1515 1515 1516 1516 1516
1529 1529 1529 1529 1529 1530 1530 1530 1530 1529 1529 1529 1529 1529 1529 1528 1527 1527 1528 1529 1528 1527 1527 1527 1527 1526 1526 1526 1526 1525 1524 1524 1523 1523 1523 1523 1522 1521 1521 1520 1519 1518 1518 1518 1517 1517 1517 1516 1515 1515 1514 1514 1514 1513 1514 1514 1513 1513 1514 1514 1514 1514 1514 1514 1514 1514 1514 1515 1515 1515 1515 1515 1515 1515 1515 1515 1515 1515 1515 1515 1516 1516 1517 1517 1518
1532 1531 1531 1532 1532 1532 1532 1532 1532 1532 1531 1531 1530 1531 1531 1531 1530 1530 1531 1531 1531 1530 1530 1529 1530 1530 1529 1529 1528 1527 1527 1526 1527 1527 1527 1526 1525 1525 1524 1524 1523 1523 1522 1522 1522 1521 1520 1519 1518 1518 1518 1517 1517 1517 1517 1516 1516 1516 1516 1516 1516 1516 1516 1515 1515 1515 1516 1516 1516 1516 1516 1516 1516 1516 1516 1516 1516 1516 1516 1517 1517 1518 1519 1519 1519
1534 1534 1534 1534 1535 1535 1535 1535 1535 1535 1534 1533 1533 1532 1533 1533 1533 1533 1533 1533 1534 1533 1532 1532 1532 1533 1532 1531 1531 1530 1529 1530 1530 1530 1529 1529 1528 1527 1527 1527 1527 1526 1526 1526 1525 1523 1522 1522 1521 1521 1521 1521 1520 1520 1520 1520 1520 1519 1519 1519 1518 1518 1518 1517 1517 1517 1518 1518 1518 1518 1518 1518 1518 1518 1518 1518 1518 1518 1518 1519 1519 1520 1521 1521 1521
1535 1536 1536 1537 1537 1538 1538 1538 1538 1537 1537 1537 1536 1535 1534 1535 1535 1535 1536 1536 1536 1535 1535 1534 1535 1535 1534 1533 1533 1533 1533 1533 1533 1533 1532 1531 1531 1530 1530 1530 1529 1529 1529 1528 1526 1525 1525 1524 1524 1524 1524 1524 1523 1523 1523 1523 1523 1522 1522 1522 1521 1521 1520 1520 1520 1520 1520 1519 1519 1520 1520 1520 1519 1519 1520 1520 1520 1519 1519 1520 1520 1520 1521 1522 1523
1536 1537 1538 1539 1540 1540 1540 1540 1540 1540 1539 1539 1539 1538 1537 1537 1537 1538 1538 1538 1538 1538 1537 1537 1537 1537 1537 1536 1536 1536 1536 1536 1536 1535 1534 1534 1533 1532 1532 1532 1531 1531 1531 1529 1527 1527 1527 1527 1527 1527 1527 1526 1526 1526 1526 1525 1525 1524 1524 1524 1523 1523 1522 1522 1522 1522 1522 1521 1521 1521 1521 1521 1521 1521 1521 1521 1521 1521 1520 1520 1521 1521 1522 1523 1524
1538 1539 1540 1541 1541 1542 1542 1542 1542 1542 1542 1541 1541 1540 1540 1539 1539 1539 1540 1540 1540 1540 1540 1539 1539 1539 1539 1539 1539 1539 1539 1538 1538 1537 1537 1537 1536 1535 1535 1534 1534 1533 1532 1530 1529 1529 1530 1529 1529 1529 1529 1529 1528 1528 1528 1527 1527 1526 1526 1525 1525 1525 1524 1524 1524 1524 1523 1523 1523 1523 1522 1522 1522 1522 1522 1522 1522 1522 1522 1521 1522 1522 1522 1523 1524
1539 1540 1541 1542 1543 1543 1544 1544 1544 1544 1544 1543 1543 1542 1542 1542 1542 1542 1542 1542 1542 1542 1542 1542 1542 1542 1542 1541 1541 1541 1541 1540 1540 1539 1539 1539 1538 1538 1537 1536 1536 1535 1534 1533 1532 1532 1532 1532 1532 1532 1531 1531 1531 1530 1529 1529 1529 1528 1527 1527 1526 1526 1526 1526 1525 1525 1525 1525 1524 1524 1524 1524 1524 1523 1523 1523 1523 1523 1523 1523 1523 1523 1523 1524 1524
1541 1542 1542 1543 1544 1544 1545 1545 1545 1545 1545 1545 1545 1545 1544 1544 1544 1544 1544 1543 1543 1544 1544 1545 1545 1544 1544 1544 1544 1543 1543 1543 1542 1542 1541 1541 1541 1540 1539 1538 1537 1537 1536 1535 1535 1535 1535 1535 1534 1534 1534 1533 1532 1532 1531 1530 1530 1529 1529 1528 1528 1527 1527 1527 1527 1526 1526 1526 1526 1525 1525 1525 1525 1525 1525 1524 1524 1524 1524 1524 1524 1524 1524 1524 1525
1542 1543 1544 1544 1545 1545 1546 1546 1547 1547 1547 1547 1547 1547 1546 1546 1546 1546 1546 1546 1545 1546 1546 1547 1547 1547 1546 1546 1546 1546 1545 1545 1544 1543 1543 1542 1542 1541 1540 1539 1539 1539 1538 1538 1538 1538 1537 1537 1536 1536 1535 1535 1534 1533 1532 1532 1531 1531 1530 1530 1529 1528 1528 1528 1528 1528 1527 1527 1527 1527 1527 1527 1526 1526 1526 1526 1526 1526 1525 1525 1525 1525 1525 1525 1525
1544 1544 1545 1545 1546 1546 1547 1548 1548 1548 1548 1548 1548 1548 1548 1548 1548 1547 1547 1548 1548 1548 1548 1548 1549 1548 1548 1548 1548 1548 1547 1547 1546 1545 1545 1544 1543 1542 1542 1541 1541 1541 1541 1540 1540 1540 1539 1539 1538 1538 1537 1536 1536 1535 1534 1533 1532 1532 1531 1531 1530 1529 1529 1529 1529 1529 1529 1528 1528 1528 1528 1527 1527 1527 1527 1527 1527 1527 1527 1527 1526 1526 1526 1526 1526
1545 1546 1547 1547 1547 1547 1548 1548 1549 1549 1549 1550 1550 1550 1549 1549 1549 1549 1549 1549 1549 1550 1550 1550 1550 1550 1550 1550 1550 1549 1549 1548 1548 1547 1546 1546 1545 1544 1544 1544 1543 1543 1543 1542 1542 1542 1541 1540 1540 1539 1539 1538 1537 1536 1536 1535 1534 1533 1532 1532 1531 1530 1530 1530 1530 1530 1530 1529 1529 1529 1529 1528 1528 1528 1528 1528 1528 1528 1528 1527 1527 1527 1527 1527 1527
1546 1547 1548 1548 1549 1549 1549 1550 1550 1550 1551 1551 1551 1551 1551 1551 1550 1551 1551 1551 1551 1551 1551 1552 1552 1552 1552 1552 1551 1551 1550 1549 1549 1548 1548 1548 1547 1547 1546 1546 1545 1545 1544 1544 1544 1543 1543 1542 1541 1541 1540 1539 1539 1538 1537 1536 1535 1534 1534 1533 1532 1531 1531 1531 1531 1531 1531 1531 1531 1530 1530 1529 1529 1530 1530 1530 1530 1530 1529 1529 1528 1528 1528 1528 1528
1547 1548 1548 1549 1550 1550 1551 1551 1551 1551 1552 1552 1552 1552 1552 1552 1552 1552 1552 1552 1552 1552 1553 1553 1553 1553 1554 1554 1553 1552 1551 1550 1550 1550 1550 1549 1549 1548 1548 1547 1547 1546 1546 1546 1545 1545 1544 1543 1543 1542 1542 1541 1540 1539 1538 1537 1536 1535 1535 1534 1533 1532 1532 1531 1531 1531 1532 1532 1532 1531 1531 1531 1531 1531 1531 1531 1531 1531 1531 1530 1530 1530 1530 1530 1530
1548 1549 1549 1550 1551 1551 1551 1552 1552 1552 1552 1553 1553 1553 1554 1554 1554 1554 1553 1553 1553 1553 1554 1554 1554 1555 1555 1555 1554 1554 1553 1552 1552 1552 1551 1551 1551 1550 1550 1549 1548 1548 1548 1547 1546 1546 1545 1545 1544 1544 1543 1542 1541 1540 1539 1538 1537 1536 1535 1535 1534 1533 1533 1532 1532 1532 1532 1532 1532 1532 1532 1532 1532 1532 1531 1531 1531 1531 1531 1531 1531 1530 1530 1531 1531
1549 1549 1550 1551 1551 1552 1552 1553 1553 1553 1553 1553 1554 1554 1554 1555 1555 1555 1554 1554 1554 1555 1555 1555 1555 1556 1556 1556 1555 1555 1554 1553 1553 1553 1553 1553 1552 1552 1551 1551 1550 1549 1549 1548 1548 1547 1547 1546 1545 1545 1544 1543 1542 1541 1540 1539 1538 1537 1536 1535 1534 1534 1533 1533 1532 1532 1532 1532 1532 1532 1532 1532 1532 1532 1532 1532 1532 1532 1532 1531 1531 1531 1531 1531 1531
1549 1550 1550 1551 1552 1552 1553 1553 1554 1554 1554 1554 1554 1555 1555 1555 1556 1556 1556 1556 1556 1556 1556 1556 1556 1556 1557 1556 1556 1556 1555 1555 1555 1554 1554 1554 1554 1553 1553 1552 1552 1551 1550 1549 1549 1548 1547 1546 1546 1545 1544 1544 1543 1542 1541 1540 1539 1538 1537 1536 1535 1534 1533 1533 1532 1532 1532 1532 1532 1532 1532 1532 1532 1532 1532 1532 1532 1532 1532 1531 1531 1531 1531 1531 1531
1550 1550 1551 1552 1552 1553 1553 1554 1554 1554 1555 1555 1555 1555 1555 1556 1556 1556 1556 1557 1557 1557 1557 1557 1557 1557 1557 1557 1557 1557 1556 1556 1556 1556 1555 1555 1555 1554 1554 1554 1553 1552 1552 1551 1550 1549 1548 1547 1546 1545 1545 1544 1543 1543 1542 1541 1540 1539 1538 1536 1535 1534 1533 1533 1532 1532 1531 1531 1531 1532 1532 1532 1532 1532 1531 1531 1531 1531 1531 1531 1530 1530 1530 1530 1530
1550 1551 1551 1552 1553 1553 1554 1555 1555 1555 1555 1555 1556 1556 1556 1556 1556 1557 1557 1557 1558 1558 1558 1558 1558 1558 1558 1558 1558 1558 1557 1557 1557 1557 1556 1556 1556 1556 1555 1555 1554 1553 1553 1552 1551 1550 1549 1548 1547 1546 1545 1544 1544 1543 1542 1541 1540 1540 1538 1537 1536 1535 1534 1533 1532 1532 1531 1531 1531 1531 1531 1531 1531 1531 1531 1531 1530 1530 1530 1530 1530 1529 1529 1529 1529
1551 1551 1552 1553 1553 1554 1554 1555 1555 1556 1556 1556 1556 1556 1557 1557 1557 1557 1557 1558 1558 1558 1558 1558 1558 1559 1559 1558 1558 1558 1558 1558 1558 1557 1557 1557 1556 1556 1556 1555 1555 1554 1553 1552 1552 1551 1550 1549 1548 1547 1546 1545 1544 1543 1543 1542 1541 1540 1539 1538 1537 1536 1535 1534 1533 1532 1531 1531 1530 1530 1530 1531 1531 1531 1530 1530 1530 1530 1529 1529 1529 1528 1528 1528 1528
1551 1552 1553 1553 1554 1554 1555 1555 1555 1556 1556 1556 1557 1557 1557 1557 1558 1558 1558 1558 1558 1558 1558 1558 1558 1559 1559 1559 1559 1558 1558 1558 1558 1558 1557 1557 1557 1556 1556 1556 1555 1554 1554 1553 1552 1551 1550 1549 1548 1548 1547 1546 1545 1544 1543 1542 1541 1540 1539 1538 1537 1536 1535 1534 1533 1532 1531 1531 1530 1530 1529 1529 1529 1530 1530 1529 1529 1529 1529 1529 1528 1528 1527 1527 1527
1551 1552 1553 1553 1554 1554 1555 1555 1555 1556 1556 1556 1557 1557 1557 1558 1558 1558 1558 1558 1558 1558 1558 1558 1558 1559 1559 1559 1559 1558 1558 1558 1558 1558 1558 1557 1557 1556 1556 1556 1555 1554 1554 1553 1552 1551 1550 1549 1549 1548 1547 1546 1545 1544 1543 1542 1541 1540 1539 1539 1537 1536 1535 1534 1533 1532 1531 1530 1529 1529 1529 1528 1528 1528 1528 1528 1528 1528 1528 1528 1527 1527 1527 1526 1526
1552 1552 1553 1553 1554 1554 1554 1555 1555 1556 1556 1556 1556 1557 1557 1557 1557 1557 1557 1557 1557 1557 1558 1558 1558 1558 1559 1559 1559 1558 1558 1558 1558 1557 1557 1557 1557 1556 1556 1555 1555 1554 1553 1553 1552 1551 1550 1549 1549 1548 1547 1546 1545 1544 1543 1542 1541 1540 1539 1539 1537 1536 1535 1534 1532 1531 1530 1529 1528 1528 1527 1527 1527 1527 1526 1526 1526 1526 1526 1526 1526 1526 1526 1525 1525
1551 1552 1553 1553 1553 1554 1554 1555 1555 1555 1556 1556 1556 1556 1556 1557 1557 1557 1557 1557 1557 1557 1557 1557 1557 1558 1558 1558 1558 1558 1557 1557 1557 1557 1556 1556 1556 1555 1555 1554 1554 1553 1553 1552 1551 1551 1550 1549 1548 1547 1546 1546 1545 1544 1543 1542 1541 1540 1539 1538 1537 1536 1535 1533 1532 1531 1529 1528 1527 1526 1526 1525 1525 1525 1525 1524 1524 1524 1524 1524 1524 1524 1524 1524 1524
1551 1551 1552 1552 1553 1553 1553 1554 1554 1554 1555 1555 1556 1556 1556 1556 1556 1556 1556 1557 1557 1557 1557 1557 1557 1557 1557 1557 1557 1557 1557 1556 1556 1556 1555 1555 1555 1554 1554 1553 1553 1553 1552 1551 1551 1550 1549 1548 1548 1547 1546 1545 1544 1544 1543 1542 1541 1540 1539 1538 1537 1536 1534 1533 1532 1530 1529 1527 1526 1525 1524 1524 1523 1523 1523 1522 1522 1522 1522 1522 1522 1522 1522 1522 1522